World > North America > United States > South Carolina > Nesmith

Nesmith, SC Hourly Weather Conditions

Feedback E-mail the Weather

Quick WX

Nesmith, SC Weather Maps

°F °C°F °C
Nesmith Weather Map
UTC Time: 12/4/2022, 15:14
Your Time:

Nesmith, SC Regional Weather

Expires:202212041600;;289537
ASUS42 KCHS 041510
RWRCHS

Regional Weather Roundup
National Weather Service Charleston SC
1000 AM EST SUN DEC 04 2022

NOTE: "fair" indicates few or no clouds below 12,000 feet with no
significant weather and/or obstructions to visibility.

Not all stations are quality controlled. Use data with caution,
especially dewpoint observations.


SCZ027-030-031-034>040-042>050-041600-
...Southeast South Carolina...
  
CITY           SKY/WX    TMP DP  RH WIND       PRES   REMARKS
N Charleston   PTSUNNY   66  56  70 NE7       30.22S                  
Waterfront Prk   N/A     61  55  81 N10       30.07S                  
Mount Pleasant FAIR      63  55  77 CALM      30.21F                  
Johns Island   PTSUNNY   63  57  82 VRB7      30.22S                  
Pinopolis        N/A     57  55  94 NE5         N/A                   
Moncks Corner  FAIR      61  50  67 NE5       30.23S                  
Summerville    FAIR      61  55  82 N6        30.22S                  
Beaufort MCAS  CLOUDY    63  56  78 N6        30.23R                  
Beaufort Arpt  CLOUDY    61  54  77 N6        30.22S                  
Hilton Head Is CLOUDY    63  57  82 N9        30.23S                  
Walterboro     PTSUNNY   57  54  88 NE7       30.24S                  
Allendale      CLOUDY    59  55  88 N7        30.24R                  

...Southern Midlands and Pee Dee...
  
CITY           SKY/WX    TMP DP  RH WIND       PRES   REMARKS
Georgetown     NOT AVBL                                               
Kingstree      FAIR      57  45  62 E6        30.24S                  
Orangeburg     SUNNY     60  49  66 E7        30.25R                  
Barnwell       PTSUNNY   59  54  82 N6        30.26R                  
Aiken          FAIR      58  51  76 E5        30.27R                  
Manning        FAIR      57  48  72 NE6       30.24S                  
Columbia       MOSUNNY   58  46  64 NE10      30.26R                  
Sumter         MOSUNNY   58  42  56 NE14      30.25R                  
Florence       SUNNY     57  42  57 NE13      30.26R                  
Myrtle Beach   SUNNY     59  48  67 N10       30.23R                  
N Myrtle Beach SUNNY     58  47  66 NE9       30.22R                  

$$
 

SKY/WX - Weather  TMP - Temperature  DP - Dew Point  RH - Humidity
WIND - Wind Direction/Speed PRES - Barometric Pressure VSB - Visibility
WCI - Wind Chill Index E13G22 Wind - East Wind 13 mph/Gusts of 22 mph

Trending Headlines

Trending Entertainment Headlines

Nesmith Radar Loop

Use the map search tool if you want to place a location marker on the radar map...

Nesmith Quick Facts

National Two Day Weather Forecast


E-mail the Nesmith Weather Forecast

Voice your opinion or tell us about page issues...